Time,TemperatureF,DewpointF,PressureIn,WindDirection,WindDirectionDegrees,WindSpeedMPH,WindSpeedGustMPH,Humidity,HourlyPrecipIn,Conditions,Clouds,dailyrainin,SoftwareType,DateUTC
2013-07-01 00:01:00,73.0,61.0,29.94,North,360,13.0,21.0,64,-99.99,,,-99.99,,2013-07-01 00:01:00,
2013-07-01 00:11:00,73.0,61.0,29.94,North,360,13.0,21.0,64,-99.99,,,-99.99,,2013-07-01 00:11:00,
2013-07-01 00:22:00,72.0,63.0,29.95,North,360,12.0,17.0,73,-99.99,,,-99.99,,2013-07-01 00:22:00,
2013-07-01 00:33:00,70.0,63.0,29.95,North,360,8.0,-999.0,77,-99.99,,,-99.99,,2013-07-01 00:33:00,
2013-07-01 00:42:00,72.0,63.0,29.95,North,360,8.0,-999.0,73,-99.99,,,-99.99,,2013-07-01 00:42:00,
2013-07-01 00:52:00,72.0,63.0,29.96,North,360,9.0,-999.0,73,-99.99,,,-99.99,,2013-07-01 00:52:00,
2013-07-01 01:01:00,72.0,61.0,29.96,North,360,9.0,-999.0,68,-99.99,,,-99.99,,2013-07-01 01:01:00,
2013-07-01 01:11:00,70.0,61.0,29.96,North,360,9.0,-999.0,73,-99.99,,,-99.99,,2013-07-01 01:11:00,
2013-07-01 01:22:00,70.0,61.0,29.96,North,360,9.0,-999.0,73,-99.99,,,-99.99,,2013-07-01 01:22:00,
2013-07-01 01:33:00,70.0,61.0,29.96,North,360,9.0,-999.0,73,-99.99,,,-99.99,,2013-07-01 01:33:00,
2013-07-01 01:42:00,70.0,61.0,29.96,North,360,8.0,-999.0,73,-99.99,,,-99.99,,2013-07-01 01:42:00,
2013-07-01 01:52:00,70.0,61.0,29.96,North,360,7.0,-999.0,73,-99.99,,,-99.99,,2013-07-01 01:52:00,
2013-07-01 02:02:00,68.0,61.0,29.96,North,350,7.0,-999.0,77,-99.99,,,-99.99,,2013-07-01 02:02:00,
2013-07-01 02:11:00,68.0,61.0,29.96,NNW,340,7.0,-999.0,77,-99.99,,,-99.99,,2013-07-01 02:11:00,
2013-07-01 02:22:00,68.0,61.0,29.97,NNW,330,5.0,-999.0,77,-99.99,,,-99.99,,2013-07-01 02:22:00,
2013-07-01 02:33:00,66.0,61.0,29.97,NNW,330,5.0,-999.0,82,-99.99,,,-99.99,,2013-07-01 02:33:00,
2013-07-01 02:44:00,66.0,61.0,29.97,NNW,340,5.0,-999.0,82,-99.99,,,-99.99,,2013-07-01 02:44:00,
2013-07-01 02:53:00,66.0,61.0,29.98,NNW,340,7.0,-999.0,82,-99.99,,,-99.99,,2013-07-01 02:53:00,
2013-07-01 03:01:00,68.0,61.0,29.99,North,10,10.0,-999.0,77,-99.99,,,-99.99,,2013-07-01 03:01:00,
2013-07-01 03:11:00,68.0,63.0,29.99,North,350,7.0,-999.0,82,-99.99,,,-99.99,,2013-07-01 03:11:00,
2013-07-01 03:23:00,66.0,63.0,30.00,North,360,9.0,-999.0,88,-99.99,,,-99.99,,2013-07-01 03:23:00,
2013-07-01 03:33:00,66.0,61.0,30.00,North,360,9.0,-999.0,82,-99.99,,,-99.99,,2013-07-01 03:33:00,
2013-07-01 03:43:00,66.0,61.0,30.00,North,350,8.0,-999.0,82,-99.99,,,-99.99,,2013-07-01 03:43:00,
2013-07-01 03:52:00,66.0,59.0,30.00,North,350,8.0,-999.0,77,-99.99,,,-99.99,,2013-07-01 03:52:00,
2013-07-01 04:01:00,64.0,59.0,30.00,North,350,9.0,-999.0,82,-99.99,,,-99.99,,2013-07-01 04:01:00,
2013-07-01 04:11:00,64.0,61.0,30.00,NNW,340,7.0,-999.0,88,-99.99,,,-99.99,,2013-07-01 04:11:00,
2013-07-01 04:22:00,64.0,61.0,30.00,NNW,340,7.0,-999.0,88,-99.99,,,-99.99,,2013-07-01 04:22:00,
2013-07-01 04:32:00,64.0,61.0,30.00,NNW,340,8.0,-999.0,88,-99.99,,,-99.99,,2013-07-01 04:32:00,
2013-07-01 04:43:00,64.0,61.0,30.00,NNW,340,6.0,-999.0,88,-99.99,,,-99.99,,2013-07-01 04:43:00,
2013-07-01 04:53:00,64.0,61.0,29.99,NNW,340,7.0,-999.0,88,-99.99,,,-99.99,,2013-07-01 04:53:00,
2013-07-01 05:01:00,64.0,61.0,30.00,North,350,6.0,-999.0,88,-99.99,,,-99.99,,2013-07-01 05:01:00,
2013-07-01 05:11:00,64.0,61.0,30.00,North,360,7.0,-999.0,88,-99.99,,,-99.99,,2013-07-01 05:11:00,
2013-07-01 05:22:00,64.0,59.0,29.99,North,360,7.0,-999.0,82,-99.99,,,-99.99,,2013-07-01 05:22:00,
2013-07-01 05:33:00,64.0,59.0,29.99,North,360,7.0,-999.0,82,-99.99,,,-99.99,,2013-07-01 05:33:00,
2013-07-01 05:42:00,64.0,59.0,30.00,North,350,6.0,-999.0,82,-99.99,,,-99.99,,2013-07-01 05:42:00,
2013-07-01 05:52:00,64.0,59.0,30.00,North,350,9.0,-999.0,82,-99.99,,,-99.99,,2013-07-01 05:52:00,
2013-07-01 06:02:00,64.0,59.0,30.00,North,350,9.0,-999.0,82,-99.99,,,-99.99,,2013-07-01 06:02:00,
2013-07-01 06:12:00,64.0,59.0,30.00,North,350,9.0,-999.0,82,-99.99,,,-99.99,,2013-07-01 06:12:00,
2013-07-01 06:24:00,64.0,59.0,30.00,North,360,7.0,-999.0,82,-99.99,,,-99.99,,2013-07-01 06:24:00,
2013-07-01 06:33:00,64.0,61.0,30.00,North,360,8.0,-999.0,88,-99.99,,,-99.99,,2013-07-01 06:33:00,
2013-07-01 06:43:00,64.0,59.0,30.00,North,350,8.0,-999.0,82,-99.99,,,-99.99,,2013-07-01 06:43:00,
2013-07-01 06:53:00,64.0,59.0,30.01,North,350,7.0,-999.0,82,-99.99,,,-99.99,,2013-07-01 06:53:00,
2013-07-01 07:01:00,63.0,59.0,30.01,NNW,340,7.0,-999.0,88,-99.99,,,-99.99,,2013-07-01 07:01:00,
2013-07-01 07:11:00,63.0,59.0,30.01,NNW,340,6.0,-999.0,88,-99.99,,,-99.99,,2013-07-01 07:11:00,
2013-07-01 07:22:00,63.0,61.0,30.00,NNW,340,7.0,-999.0,93,-99.99,,,-99.99,,2013-07-01 07:22:00,
2013-07-01 07:33:00,63.0,63.0,30.00,North,350,7.0,-999.0,100,-99.99,,,-99.99,,2013-07-01 07:33:00,
2013-07-01 07:43:00,61.0,61.0,30.00,North,350,7.0,-999.0,100,-99.99,,,-99.99,,2013-07-01 07:43:00,
2013-07-01 07:53:00,61.0,61.0,30.00,North,350,7.0,-999.0,100,-99.99,,,-99.99,,2013-07-01 07:53:00,
2013-07-01 08:01:00,61.0,61.0,30.00,North,350,7.0,-999.0,100,-99.99,,,-99.99,,2013-07-01 08:01:00,
2013-07-01 08:11:00,61.0,61.0,30.00,North,350,8.0,-999.0,100,-99.99,,,-99.99,,2013-07-01 08:11:00,
2013-07-01 08:22:00,61.0,61.0,30.00,North,360,7.0,-999.0,100,-99.99,,,-99.99,,2013-07-01 08:22:00,
2013-07-01 08:33:00,61.0,61.0,30.00,North,360,7.0,-999.0,100,-99.99,,,-99.99,,2013-07-01 08:33:00,
2013-07-01 08:42:00,59.0,59.0,30.00,North,360,7.0,-999.0,100,-99.99,,,-99.99,,2013-07-01 08:42:00,
2013-07-01 08:52:00,59.0,59.0,30.00,North,360,7.0,-999.0,100,-99.99,,,-99.99,,2013-07-01 08:52:00,
2013-07-01 09:02:00,59.0,59.0,30.00,NNW,340,8.0,-999.0,100,-99.99,,,-99.99,,2013-07-01 09:02:00,
2013-07-01 09:11:00,59.0,59.0,30.00,North,350,8.0,-999.0,100,-99.99,,,-99.99,,2013-07-01 09:11:00,
2013-07-01 09:22:00,59.0,59.0,30.00,NNW,340,7.0,-999.0,100,-99.99,,,-99.99,,2013-07-01 09:22:00,
2013-07-01 09:34:00,59.0,59.0,30.00,NNW,340,7.0,-999.0,100,-99.99,,,-99.99,,2013-07-01 09:34:00,
2013-07-01 09:43:00,59.0,59.0,30.00,NNW,340,7.0,-999.0,100,-99.99,,,-99.99,,2013-07-01 09:43:00,
2013-07-01 09:53:00,59.0,59.0,30.00,NNW,340,7.0,-999.0,100,-99.99,,,-99.99,,2013-07-01 09:53:00,
2013-07-01 10:03:00,59.0,59.0,30.00,NNW,340,7.0,-999.0,100,-99.99,,,-99.99,,2013-07-01 10:03:00,
2013-07-01 10:11:00,59.0,59.0,30.00,NNW,340,9.0,-999.0,100,-99.99,,,-99.99,,2013-07-01 10:11:00,
2013-07-01 10:22:00,59.0,59.0,30.01,NNW,340,8.0,-999.0,100,-99.99,,,-99.99,,2013-07-01 10:22:00,
2013-07-01 10:33:00,59.0,59.0,30.01,North,350,8.0,-999.0,100,-99.99,,,-99.99,,2013-07-01 10:33:00,
2013-07-01 10:42:00,59.0,59.0,30.01,North,350,8.0,-999.0,100,-99.99,,,-99.99,,2013-07-01 10:42:00,
2013-07-01 10:52:00,59.0,59.0,30.02,NNW,340,7.0,-999.0,100,-99.99,,,-99.99,,2013-07-01 10:52:00,
2013-07-01 11:02:00,57.0,57.0,30.02,NNW,330,6.0,-999.0,100,-99.99,,,-99.99,,2013-07-01 11:02:00,
2013-07-01 11:11:00,57.0,57.0,30.02,NNW,330,6.0,-999.0,100,-99.99,,,-99.99,,2013-07-01 11:11:00,
2013-07-01 11:22:00,57.0,57.0,30.02,NNW,330,7.0,-999.0,100,-99.99,,,-99.99,,2013-07-01 11:22:00,
2013-07-01 11:33:00,57.0,57.0,30.02,NNW,330,8.0,-999.0,100,-99.99,,,-99.99,,2013-07-01 11:33:00,
2013-07-01 11:43:00,57.0,57.0,30.02,NNW,330,7.0,-999.0,100,-99.99,,,-99.99,,2013-07-01 11:43:00,
2013-07-01 11:52:00,59.0,59.0,30.02,NNW,340,7.0,-999.0,100,-99.99,,,-99.99,,2013-07-01 11:52:00,
2013-07-01 12:01:00,59.0,57.0,30.03,NNW,330,8.0,-999.0,93,-99.99,,,-99.99,,2013-07-01 12:01:00,
2013-07-01 12:11:00,59.0,59.0,30.03,NNW,330,7.0,-999.0,100,-99.99,,,-99.99,,2013-07-01 12:11:00,
2013-07-01 12:22:00,59.0,57.0,30.03,NNW,330,9.0,-999.0,93,-99.99,,,-99.99,,2013-07-01 12:22:00,
2013-07-01 12:33:00,59.0,57.0,30.03,NNW,330,8.0,-999.0,93,-99.99,,,-99.99,,2013-07-01 12:33:00,
2013-07-01 12:43:00,61.0,57.0,30.03,NNW,340,9.0,-999.0,87,-99.99,,,-99.99,,2013-07-01 12:43:00,
2013-07-01 12:53:00,61.0,57.0,30.04,NNW,340,9.0,-999.0,87,-99.99,,,-99.99,,2013-07-01 12:53:00,
2013-07-01 13:02:00,63.0,57.0,30.04,NNW,340,8.0,-999.0,82,-99.99,,,-99.99,,2013-07-01 13:02:00,
2013-07-01 13:12:00,63.0,57.0,30.04,North,350,9.0,-999.0,82,-99.99,,,-99.99,,2013-07-01 13:12:00,
2013-07-01 13:23:00,63.0,57.0,30.04,North,350,12.0,-999.0,82,-99.99,,,-99.99,,2013-07-01 13:23:00,
2013-07-01 13:33:00,63.0,55.0,30.05,North,350,10.0,-999.0,77,-99.99,,,-99.99,,2013-07-01 13:33:00,
2013-07-01 13:43:00,64.0,55.0,30.05,North,360,14.0,-999.0,72,-99.99,,,-99.99,,2013-07-01 13:43:00,
2013-07-01 13:53:00,64.0,55.0,30.05,North,350,13.0,18.0,72,-99.99,,,-99.99,,2013-07-01 13:53:00,
2013-07-01 14:01:00,64.0,55.0,30.05,North,350,13.0,18.0,72,-99.99,,,-99.99,,2013-07-01 14:01:00,
2013-07-01 14:11:00,64.0,55.0,30.05,North,360,14.0,-999.0,72,-99.99,,,-99.99,,2013-07-01 14:11:00,
2013-07-01 14:22:00,66.0,55.0,30.05,North,360,13.0,18.0,68,-99.99,,,-99.99,,2013-07-01 14:22:00,
2013-07-01 14:34:00,68.0,55.0,30.06,North,10,15.0,18.0,64,-99.99,,,-99.99,,2013-07-01 14:34:00,
2013-07-01 14:43:00,66.0,54.0,30.06,North,360,14.0,20.0,63,-99.99,,,-99.99,,2013-07-01 14:43:00,
2013-07-01 14:52:00,66.0,54.0,30.06,North,360,14.0,20.0,63,-99.99,,,-99.99,,2013-07-01 14:52:00,
2013-07-01 15:02:00,66.0,55.0,30.06,North,360,13.0,-999.0,68,-99.99,,,-99.99,,2013-07-01 15:02:00,
2013-07-01 15:11:00,64.0,55.0,30.06,North,360,12.0,-999.0,72,-99.99,,,-99.99,,2013-07-01 15:11:00,
2013-07-01 15:23:00,64.0,55.0,30.06,North,360,10.0,-999.0,72,-99.99,,,-99.99,,2013-07-01 15:23:00,
2013-07-01 15:34:00,66.0,55.0,30.06,North,350,10.0,-999.0,68,-99.99,,,-99.99,,2013-07-01 15:34:00,
2013-07-01 15:43:00,66.0,55.0,30.06,North,350,13.0,17.0,68,-99.99,,,-99.99,,2013-07-01 15:43:00,
2013-07-01 15:52:00,66.0,55.0,30.06,North,360,12.0,-999.0,68,-99.99,,,-99.99,,2013-07-01 15:52:00,
2013-07-01 16:01:00,70.0,57.0,30.06,NNW,340,12.0,-999.0,64,-99.99,,,-99.99,,2013-07-01 16:01:00,
2013-07-01 16:11:00,70.0,57.0,30.06,North,350,13.0,-999.0,64,-99.99,,,-99.99,,2013-07-01 16:11:00,
2013-07-01 16:22:00,70.0,57.0,30.06,NNW,340,9.0,-999.0,64,-99.99,,,-99.99,,2013-07-01 16:22:00,
2013-07-01 16:33:00,72.0,57.0,30.05,NNW,340,10.0,-999.0,60,-99.99,,,-99.99,,2013-07-01 16:33:00,
2013-07-01 16:44:00,72.0,57.0,30.05,NNW,340,10.0,-999.0,60,-99.99,,,-99.99,,2013-07-01 16:44:00,
2013-07-01 16:53:00,72.0,57.0,30.05,NNW,340,10.0,-999.0,60,-99.99,,,-99.99,,2013-07-01 16:53:00,
2013-07-01 17:02:00,72.0,57.0,30.05,NNW,340,10.0,-999.0,60,-99.99,,,-99.99,,2013-07-01 17:02:00,
2013-07-01 17:12:00,73.0,59.0,30.05,NNW,330,12.0,-999.0,60,-99.99,,,-99.99,,2013-07-01 17:12:00,
2013-07-01 17:23:00,73.0,59.0,30.05,NNW,340,13.0,-999.0,60,-99.99,,,-99.99,,2013-07-01 17:23:00,
2013-07-01 17:34:00,75.0,59.0,30.05,North,350,13.0,-999.0,57,-99.99,,,-99.99,,2013-07-01 17:34:00,
2013-07-01 17:43:00,75.0,59.0,30.05,North,360,12.0,-999.0,57,-99.99,,,-99.99,,2013-07-01 17:43:00,
2013-07-01 17:53:00,75.0,59.0,30.05,North,10,10.0,21.0,57,-99.99,,,-99.99,,2013-07-01 17:53:00,
2013-07-01 18:02:00,75.0,57.0,30.05,North,360,13.0,22.0,53,-99.99,,,-99.99,,2013-07-01 18:02:00,
2013-07-01 18:11:00,77.0,57.0,30.05,North,10,14.0,21.0,50,-99.99,,,-99.99,,2013-07-01 18:11:00,
2013-07-01 18:22:00,77.0,57.0,30.05,North,10,14.0,18.0,50,-99.99,,,-99.99,,2013-07-01 18:22:00,
2013-07-01 18:33:00,77.0,57.0,30.05,North,10,14.0,18.0,50,-99.99,,,-99.99,,2013-07-01 18:33:00,
2013-07-01 18:43:00,77.0,59.0,30.05,North,350,16.0,22.0,53,-99.99,,,-99.99,,2013-07-01 18:43:00,
2013-07-01 18:53:00,77.0,59.0,30.04,North,350,14.0,22.0,53,-99.99,,,-99.99,,2013-07-01 18:53:00,
2013-07-01 19:02:00,77.0,59.0,30.04,North,350,17.0,23.0,53,-99.99,,,-99.99,,2013-07-01 19:02:00,
2013-07-01 19:11:00,77.0,59.0,30.04,North,350,10.0,23.0,53,-99.99,,,-99.99,,2013-07-01 19:11:00,
2013-07-01 19:22:00,77.0,57.0,30.04,NNE,30,14.0,-999.0,50,-99.99,,,-99.99,,2013-07-01 19:22:00,
2013-07-01 19:33:00,77.0,57.0,30.04,NNE,30,13.0,-999.0,50,-99.99,,,-99.99,,2013-07-01 19:33:00,
2013-07-01 19:44:00,77.0,57.0,30.04,NNE,20,15.0,21.0,50,-99.99,,,-99.99,,2013-07-01 19:44:00,
2013-07-01 19:52:00,77.0,57.0,30.04,NNE,20,15.0,21.0,50,-99.99,,,-99.99,,2013-07-01 19:52:00,
2013-07-01 20:02:00,79.0,55.0,30.03,North,360,17.0,22.0,44,-99.99,,,-99.99,,2013-07-01 20:02:00,
2013-07-01 20:11:00,79.0,55.0,30.04,North,360,18.0,23.0,44,-99.99,,,-99.99,,2013-07-01 20:11:00,
2013-07-01 20:22:00,79.0,55.0,30.04,NNE,20,12.0,-999.0,44,-99.99,,,-99.99,,2013-07-01 20:22:00,
2013-07-01 20:34:00,79.0,55.0,30.04,NNE,20,12.0,-999.0,44,-99.99,,,-99.99,,2013-07-01 20:34:00,
2013-07-01 20:43:00,79.0,55.0,30.04,North,350,14.0,17.0,44,-99.99,,,-99.99,,2013-07-01 20:43:00,
2013-07-01 20:52:00,79.0,55.0,30.03,North,350,15.0,23.0,44,-99.99,,,-99.99,,2013-07-01 20:52:00,
2013-07-01 21:02:00,79.0,55.0,30.03,North,350,15.0,23.0,44,-99.99,,,-99.99,,2013-07-01 21:02:00,
2013-07-01 21:11:00,77.0,55.0,30.03,North,360,20.0,24.0,47,-99.99,,,-99.99,,2013-07-01 21:11:00,
2013-07-01 21:24:00,79.0,55.0,30.03,North,360,16.0,21.0,44,-99.99,,,-99.99,,2013-07-01 21:24:00,
2013-07-01 21:34:00,79.0,57.0,30.03,North,10,17.0,22.0,47,-99.99,,,-99.99,,2013-07-01 21:34:00,
2013-07-01 21:43:00,79.0,55.0,30.03,NNE,20,10.0,22.0,44,-99.99,,,-99.99,,2013-07-01 21:43:00,
2013-07-01 21:53:00,79.0,57.0,30.03,North,10,16.0,22.0,47,-99.99,,,-99.99,,2013-07-01 21:53:00,
2013-07-01 22:01:00,79.0,57.0,30.03,North,10,16.0,22.0,47,-99.99,,,-99.99,,2013-07-01 22:01:00,
2013-07-01 22:11:00,77.0,55.0,30.03,North,350,18.0,-999.0,47,-99.99,,,-99.99,,2013-07-01 22:11:00,
2013-07-01 22:24:00,77.0,55.0,30.03,North,360,17.0,22.0,47,-99.99,,,-99.99,,2013-07-01 22:24:00,
2013-07-01 22:33:00,77.0,55.0,30.03,North,360,13.0,21.0,47,-99.99,,,-99.99,,2013-07-01 22:33:00,
2013-07-01 22:43:00,77.0,55.0,30.03,North,360,10.0,-999.0,47,-99.99,,,-99.99,,2013-07-01 22:43:00,
2013-07-01 22:53:00,77.0,55.0,30.02,NNW,340,20.0,23.0,47,-99.99,,,-99.99,,2013-07-01 22:53:00,
2013-07-01 23:01:00,77.0,55.0,30.02,North,360,13.0,23.0,47,-99.99,,,-99.99,,2013-07-01 23:01:00,
2013-07-01 23:11:00,77.0,55.0,30.02,North,360,17.0,24.0,47,-99.99,,,-99.99,,2013-07-01 23:11:00,
2013-07-01 23:22:00,77.0,55.0,30.02,North,360,15.0,-999.0,47,-99.99,,,-99.99,,2013-07-01 23:22:00,
2013-07-01 23:33:00,77.0,55.0,30.02,North,360,15.0,22.0,47,-99.99,,,-99.99,,2013-07-01 23:33:00,
2013-07-01 23:44:00,77.0,55.0,30.02,North,360,14.0,21.0,47,-99.99,,,-99.99,,2013-07-01 23:44:00,
2013-07-01 23:53:00,77.0,55.0,30.02,North,360,12.0,21.0,47,-99.99,,,-99.99,,2013-07-01 23:53:00,